{"data":{"norad_id":51120,"epoch":"2026-05-25T03:54:54.086400Z","epoch_age_seconds":61707,"freshness":"FRESH","line1":"1 51120U 22005S   26145.16312600  .00001045  00000+0  83713-4 0  9990","line2":"2 51120  53.2128 305.8285 0001274  87.1784 272.9354 15.08840653240426","mean_motion":15.08840653,"eccentricity":0.0001274,"inclination_deg":53.2128,"raan_deg":305.8285,"arg_perigee_deg":87.1784,"mean_anomaly_deg":272.9354,"bstar":8.3713e-5,"rev_number":24042,"period_min":95.437513374051,"perigee_km":538.86005529779,"apogee_km":540.62273071233,"semimajor_km":6917.8783930051,"source":"CELESTRAK","updated_at":"2026-05-25T13:38:16.909734Z"}}